www.pogodaiklimat.ru

Погода и климат >> Архив погоды >> Лаос >> Attapeu


ПОГОДА в Attapeu

  • Прогноз погоды в Attapeu
  • Монитор погоды в Attapeu
  • Климат города

АРХИВ ПОГОДЫ в Attapeu

Время (UTC), дата Ветер
(напр.,м/с)
 
Видим.   Явления Облачность Т
(С)
Тd
(С)
f
(%)
Тe
(С)
Тes
(С)
Комфортность P
(гПа)
Po
(гПа)
Тmin
(С)
Tmax
(С)
R
(мм)
R24
(мм)
S
(см)
00 20.05 штиль 0 6000 м слабая морось 10/8 600 м
[Cu Sc Ac As]
+25.5 +24.8 96 +36 +36 очень
душно
1008.1 1008.0 +25.3
03 20.05 С 1 8000 м мгла {туман} 8/5 600 м
[Cu med, cong Ac lent Ci sp]
+31.0 +24.6 69 +44 +51 опасность
перегрева
1008.1 997.6
06 20.05 Ю 3 8000 м мгла {туман} 8/5 600 м
[Cu med, cong Ac lent Ci sp]
+35.0 +24.4 54 +47 +53 опасность
перегрева
1004.8 994.5
09 20.05 С 1 8000 м мгла {туман} 9/6 600 м
[Cu Sc Ac As]
+34.5 +23.0 51 +44 +46 опасность
перегрева
1002.7 992.3
12 20.05 Ю 1 4000 м дымка {туман} 9/6 600 м
[Cu Sc Ac As]
+30.6 +23.2 65 +41 +41 опасность
перегрева
1003.8 995.2 +35.0
00 21.05 З 1 8000 м дымка 9/5 600 м
[Cu med, cong Ac lent Ci sp]
+26.3 +23.7 86 +36 +37 очень
душно
1007.0 996.3 +26.0
03 21.05 ЮЗ 1 15 км 6/4 600 м
[Cu med, cong Ac trans Ci sp]
+30.5 +24.0 68 +42 +52 опасность
перегрева
1008.6 998.0
06 21.05 ЮЗ 2 15 км 5/4 600 м
[Cu med, cong Ci sp]
+34.0 +24.7 58 +47 +59 опасность
перегрева
1005.9 995.5
09 21.05 ЮЗ 3 15 км 8/5 600 м
[Cu med, cong Ac lent Ci sp]
+34.7 +23.1 51 +45 +47 опасность
перегрева
1003.0 992.7
12 21.05 штиль 0 4000 м дымка {туман} 6/4 600 м
[Cu med, cong Ac trans Ci sp]
+31.0 +24.3 68 +43 +43 опасность
перегрева
1004.9 994.4 +35.0
00 22.05 штиль 0 8000 м дымка 9/6 600 м
[Cu Sc Ac As]
+25.9 +24.5 92 +36 +37 очень
душно
1009.0 998.3 +25.6 16
03 22.05 штиль 0 10 км 8/5 600 м
[Cu med, cong Ac lent Ci sp]
+31.0 +24.8 70 +44 +53 опасность
перегрева
1008.9 998.4
09 22.05 Ю 1 15 км 10/8 600 м
[Cu Sc Ac As]
+33.6 +24.5 59 +46 +47 опасность
перегрева
1003.8 993.4
12 22.05 ЮЗ 1 4000 м дымка {туман} 8/5 600 м
[Cu med, cong Ac lent Ci sp]
+29.6 +23.8 71 +41 +41 опасность
перегрева
1006.0 995.4 +33.6
00 23.05 СВ 1 15 км 5/4 600 м
[Cu med, cong Ci sp]
+24.0 +22.5 91 +31 +33 очень
душно
1009.1 998.3 +23.7 7
03 23.05 С 1 18 км 4/3 600 м
[Cu hum Ci fib]
+29.5 +23.8 71 +40 +54 опасность
солнечного
удара
1009.9 999.0
06 23.05 С 1 18 км 4/3 600 м
[Cu hum Ci fib]
+34.0 +22.4 51 +43 +59 опасность
перегрева
1006.8 996.2
09 23.05 ЮЗ 2 18 км 8/5 600 м
[Cu med, cong Ac lent Ci sp]
+35.0 +24.4 54 +47 +49 опасность
перегрева
1004.2 993.7
12 23.05 ЮЗ 2 3000 м гроза без осадков {дождь} 9/8 600 м
[Cb cap Ac As]
+26.0 +23.1 84 +35 +35 очень
душно
1007.8 996.9 +36.0 5
00 24.05 штиль 0 8000 м дымка 9/6 600 м
[Frnb Ac As]
+25.5 +24.0 91 +35 +36 очень
душно
1009.1 998.2 +25.3 3
03 24.05 штиль 0 15 км 8/5 600 м
[Cu med, cong Ac lent Ci sp]
+29.0 +24.1 75 +40 +49 очень
душно
1009.5 998.8
06 24.05 Ю 2 15 км 6/4 600 м
[Cu med, cong Ac trans]
+31.5 +23.6 63 +43 +52 опасность
перегрева
1007.5 997.0
09 24.05 ЮЗ 1 17 км 5/4 600 м
[Cu med, cong Ci sp]
+34.3 +23.8 54 +45 +50 опасность
перегрева
1004.2 993.8
00 25.05 штиль 0 8000 м слабая морось 10/8 600 м
[Cu Sc Ac As]
+24.0 +23.1 95 +32 +32 очень
душно
1009.3 998.5 +23.8 5
03 25.05 штиль 0 8000 м слабая морось {дождь} 10/8 600 м
[Cu Sc Ac As]
+25.2 +23.3 89 +34 +35 очень
душно
1009.9 999.1 0.8
06 25.05 штиль 0 15 км 6/5 600 м
[Cu med, cong Ac lent Ci sp]
+30.5 +23.2 65 +41 +53 опасность
перегрева
1006.6 996.0 0.8
09 25.05 штиль 0 15 км 9/6 600 м
[Cu Sc Ac As]
+31.4 +24.4 66 +44 +45 опасность
перегрева
1004.5 994.0
00 26.05 штиль 0 10 км 10/8 600 м
[Cu Sc Ac As]
+26.2 +24.8 92 +37 +37 очень
душно
1007.8 997.1 +26.0 0.8
03 26.05 Ю 1 15 км 9/6 600 м
[Frnb Ac As]
+30.5 +25.6 75 +45 +49 опасность
перегрева
1009.4 998.6
06 26.05 Ю 1 18 км 9/6 600 м
[Frnb Ac As]
+34.0 +24.0 56 +46 +50 опасность
перегрева
1006.8 996.2
09 26.05 Ю 1 18 км 8/5 600 м
[Cu med, cong Ac lent Ci sp]
+35.0 +23.6 52 +46 +49 опасность
перегрева
1004.9 994.3

 

Местоположение метеостанции Attapeu (Лаос): широта 14.82 долгота 106.82 высота над уровнем моря 105 м.

В архиве по умолчанию представлена погода в Attapeu за последнюю неделю. Архивные данные за месяц целиком и за предыдущие месяцы, начиная с января 2011 года, Вы можете получить, выбрав интересующий диапазон дат из раскрывающегося списка и нажав кнопку "Ввод!".


*Определитесь, кто Вы:
робот инопланетянин человек

Внимание! Время в таблицах - всемирное. Для получения местного времени необходимо прибавить поправку, которая в Attapeu равна 7 ч.

Смотрите также архив погоды в соседних городах и на ближайших метеорологических станциях:

Погода в Sekong (Лаос) (60 км)
Погода в Saravane (Лаос) (108 км)
Погода в Pakse (Лаос) (117 км)
Погода в Pleiku City (Вьетнам) (158 км)
Погода в Hue (Вьетнам) (197 км)
Погода в Quang Ngai (Вьетнам) (213 км)
Погода в Da Nang (Вьетнам) (215 км)
Погода в Ubon Ratchathani (Таиланд) (216 км)
Погода в Banmethuot (Вьетнам) (274 км)
Погода в Si Saket Agromet (Таиланд) (277 км)

Пояснения к столбцам:

Ветер - указаны скорость ветра в м/с - средняя за 10 мин, порывы в срок и между сроками (в фигурных скобках) и направление, откуда дует ветер: С - северный, СВ - северо-восточный, В - восточный, ЮВ - юго-восточный, Ю - южный, ЮЗ - юго-западный, З - западный, СЗ - северо-западный.
Видимость - горизонтальная дальность видимости в метрах или километрах. При видимости от 1 до 10 км при отсутствии осадков обычно наблюдается дымка, при ухудшении видимости до 1 км и менее - туман. В сухую погоду видимость может ухудшаться дымом, пылью или мглою.
Явления - указаны атмосферные явления, наблюдавшиеся в срок или в последний час перед сроком; фигурными скобками обозначены явления, наблюдавшиеся между сроками (за 1-3 часа до срока); квадратными скобками обозначены град или гололедные отложения с указанием их диаметра в мм.
Облачность - указаны через наклонную черту общая и нижняя облачность в баллах и высота нижней границы облаков в метрах; квадратными скобками обозначены формы облаков: Ci - перистые, Cs - перисто-слоистые, Cc - перисто-кучевые, Ac - высококучевые, As - высокослоистые, Sc - слоисто-кучевые, Ns - слоисто-дождевые, Cu - кучевые, Cb - кучево-дождевые. Подробнее классификацию облаков см. в Атласе облаков (PDF).
T - Температура воздуха - температура, измеренная на высоте 2 м над землей.
Td - Температура точки росы - температура, при понижении до которой содержащийся в воздухе водяной пар достигнет насыщения.
f - Относительная влажность воздуха - влажноcть воздуха, измеренная на высоте 2 м над землей.
Te - Эффективная температура - температура, которую ощущает одетый по сезону человек в тени. Характеристика душности погоды. При расчете учитывается влияние влажности воздуха и скорости ветра на теплоощущения человека.
Tes - Эффективная температура на солнце - температура, которую ощущает человек, с поправкой на солнечный нагрев. Характеристика знойности погоды. Зависит от высоты солнца над горизонтом, облачности и скорости ветра. Ночью, в пасмурную погоду, а также при ветре 12 м/с и более поправка равна нулю.
P - Атмосферное давление - приведенное к уровню моря атмосферное давление.
Po - Атмосферное давление - измеренное на уровне метеостанции атмосферное давление.
Tmin - Минимальная температура - минимум температуры воздуха на высоте 2 м над землей.
Tmax - Максимальная температура - максимум температуры воздуха на высоте 2 м над землей.
R - Количество осадков - Количество выпавших осадков за период времени, мм. При наведении курсора мыши на число - период времени, за который выпало указанное количество осадков.
R24 - Количество осадков - Количество выпавших осадков за 24 часа, мм.
S - Снежный покров - Высота снежного покрова, см. При наведении курсора мыши на число - состояние снежного покрова и степень покрытия местности в баллах.